BMCB-2 Weather Reports


time (UTC)temp
C
wind
direction
speed
KPH
gust
KPH
rain 1hr
cm
rain 24hr
cm
rain mn
cm
humidity
%
barometer
mb
20260506203109 8 340 4.8 8.0 0.00 0.99 0.86 85 1012.9
20260506202110 8 334 4.8 8.0 0.00 1.02 0.86 84 1012.9
20260506201109 9 349 6.4 8.0 0.00 1.04 0.86 84 1012.7
20260506200108 9 356 8.0 12.9 0.00 1.07 0.86 82 1012.6
20260506195108 9 354 8.0 14.5 0.00 1.09 0.86 81 1012.5
20260506194110 10 352 6.4 9.7 0.00 1.12 0.86 84 1012.5
20260506193109 10 358 4.8 8.0 0.00 1.12 0.86 85 1012.4
20260506192110 10 7 4.8 6.4 0.00 1.14 0.86 86 1012.2
20260506191106 10 12 4.8 8.0 0.00 1.17 0.86 86 1012.1
20260506190109 10 359 6.4 11.3 0.00 1.17 0.86 87 1012.1
20260506185107 10 352 6.4 11.3 0.00 1.22 0.86 88 1012.0
20260506184100 10 343 3.2 4.8 0.00 1.24 0.86 89 1011.8
20260506183106 10 299 3.2 4.8 0.00 1.27 0.86 89 1011.7
20260506182108 10 302 3.2 4.8 0.00 1.32 0.86 88 1011.6
20260506181101 10 300 4.8 8.0 0.00 1.37 0.86 88 1011.5
20260506180107 10 304 3.2 4.8 0.00 1.40 0.86 87 1011.3
20260506175105 10 309 4.8 8.0 0.00 1.42 0.86 87 1011.2
20260506174103 10 314 4.8 6.4 0.00 1.45 0.86 87 1011.2
20260506173100 10 314 4.8 8.0 0.00 1.45 0.86 86 1011.0
20260506171102 10 324 6.4 9.7 0.00 1.52 0.86 84 1010.9
20260506170059 10 326 6.4 9.7 0.00 1.55 0.86 84 1010.8
20260506165059 11 333 6.4 11.3 0.00 1.55 0.86 82 1010.8
20260506164102 11 328 8.0 14.5 0.00 1.57 0.86 82 1010.7
20260506163100 11 336 8.0 14.5 0.00 1.57 0.86 82 1010.7
20260506162105 11 328 8.0 16.1 0.00 1.60 0.86 80 1010.6
20260506161101 11 323 9.7 16.1 0.00 1.60 0.86 80 1010.6
20260506160058 11 319 8.0 16.1 0.00 1.60 0.86 80 1010.6
20260506155101 11 316 8.0 14.5 0.00 1.60 0.86 83 1010.6
20260506154105 11 315 8.0 16.1 0.00 1.60 0.86 83 1010.6
20260506151103 11 319 9.7 16.1 0.00 1.60 0.86 86 1010.6
20260506150100 11 325 6.4 12.9 0.00 1.60 0.86 85 1010.6
20260506145101 11 329 6.4 12.9 0.00 1.60 0.86 85 1010.6
20260506144059 10 327 6.4 12.9 0.00 1.60 0.86 85 1010.6
20260506143057 10 330 6.4 12.9 0.00 1.60 0.86 86 1010.6
20260506142058 10 330 6.4 12.9 0.00 1.60 0.86 87 1010.7
20260506141058 10 332 9.7 14.5 0.00 1.60 0.86 88 1010.8
20260506140106 10 335 6.4 12.9 0.00 1.60 0.86 89 1010.8
20260506134059 10 328 6.4 11.3 0.00 1.60 0.86 89 1010.7
20260506133059 10 335 8.0 12.9 0.00 1.60 0.86 89 1010.7
20260506131059 10 328 9.7 17.7 0.00 1.60 0.86 85 1010.5
20260506124057 10 345 6.4 12.9 0.00 1.60 0.86 90 1010.6
20260506123100 10 350 9.7 14.5 0.00 1.60 0.86 90 1010.5
20260506122058 10 355 11.3 16.1 0.00 1.60 0.86 91 1010.5
20260506121055 10 350 12.9 19.3 0.00 1.60 0.86 91 1010.4
20260506120056 10 356 11.3 19.3 0.00 1.60 0.86 91 1010.3
20260506115057 10 353 12.9 24.1 0.00 1.60 0.86 92 1010.3
20260506114058 9 354 12.9 22.5 0.00 1.60 0.86 93 1010.4
20260506113059 9 359 12.9 20.9 0.00 1.60 0.86 94 1010.3
20260506112059 9 357 14.5 22.5 0.00 1.60 0.86 96 1010.4
20260506111058 8 354 12.9 19.3 0.00 1.60 0.86 98 1010.5
20260506110057 8 351 12.9 20.9 0.03 1.60 0.86 99 1010.6
20260506104058 8 353 11.3 17.7 0.05 1.60 0.86 99 1010.6
20260506103059 8 352 11.3 17.7 0.05 1.60 0.86 10 1010.6
20260506102059 8 354 11.3 16.1 0.05 1.60 0.86 10 1010.5
20260506101057 8 352 8.0 14.5 0.05 1.60 0.86 10 1010.5
20260506100056 7 354 8.0 14.5 0.05 1.60 0.86 10 1010.4
20260506095058 7 349 8.0 12.9 0.05 1.57 0.84 10 1010.3
20260506094059 7 347 8.0 11.3 0.05 1.57 0.84 10 1010.2
20260506092057 7 355 8.0 12.9 0.05 1.55 0.81 10 1010.1
20260506091057 7 352 9.7 14.5 0.05 1.55 0.79 10 1010.1
20260506090059 7 347 8.0 16.1 0.05 1.55 0.79 10 1010.0
20260506085058 7 346 9.7 16.1 0.05 1.55 0.79 10 1009.9
20260506084056 7 349 11.3 17.7 0.03 1.55 0.79 10 1009.8
20260506083055 7 351 12.9 19.3 0.05 1.55 0.79 10 1009.7
20260506081055 7 349 11.3 19.3 0.03 1.52 0.76 10 1009.6
20260506073056 7 347 9.7 17.7 0.05 1.55 0.76 10 1009.3
20260506062054 7 339 9.7 17.7 0.20 1.52 0.71 10 1009.0
20260506061053 7 343 9.7 19.3 0.20 1.50 0.71 10 1009.0
20260506051054 7 348 9.7 17.7 0.15 1.35 0.51 10 1009.0
20260506045052 7 348 9.7 16.1 0.15 1.32 0.48 10 1008.9
20260506044054 7 346 8.0 11.3 0.13 1.32 0.46 10 1008.9
20260506043056 7 354 9.7 17.7 0.10 1.32 0.43 10 1008.9
20260506042052 7 348 8.0 14.5 0.10 1.30 0.43 10 1008.8
20260506041053 7 353 9.7 16.1 0.08 1.27 0.41 10 1008.7
20260506035057 7 355 9.7 14.5 0.05 1.24 0.36 10 1008.8
20260506034058 7 357 11.3 17.7 0.05 1.22 0.33 99 1008.8
20260506032054 7 356 9.7 17.7 0.08 1.22 0.33 99 1008.9
20260506031054 7 359 9.7 16.1 0.05 1.19 0.33 99 1008.8
20260506030052 7 4 11.3 19.3 0.05 1.19 0.33 99 1008.9
20260506025054 7 358 12.9 20.9 0.05 1.17 0.30 99 1008.9
20260506024054 8 351 8.0 16.1 0.05 1.17 0.30 99 1008.9
20260506023057 8 7 11.3 16.1 0.05 1.17 0.28 99 1009.0
20260506021056 8 2 12.9 20.9 0.05 1.14 0.25 99 1009.0
20260506020056 8 1 9.7 16.1 0.05 1.14 0.25 10 1008.9
20260506015056 8 1 12.9 19.3 0.05 1.14 0.25 10 1009.0
20260506014055 8 4 11.3 17.7 0.08 1.14 0.25 10 1009.0
20260506013054 8 2 11.3 19.3 0.05 1.12 0.23 99 1009.1
20260506012054 8 1 11.3 19.3 0.08 1.12 0.23 99 1009.1
20260506011055 8 8 11.3 19.3 0.08 1.09 0.23 99 1009.1
20260506004054 8 9 9.7 16.1 0.08 1.09 0.20 10 1009.3
20260506003053 8 11 9.7 17.7 0.05 1.07 0.18 10 1009.3
20260506002056 8 13 11.3 20.9 0.08 1.07 0.18 10 1009.4
20260506001054 8 17 11.3 19.3 0.08 1.04 0.15 10 1009.4
20260506000100 8 11 12.9 20.9 0.05 1.02 0.15 10 1009.5
20260505235103 8 16 11.3 19.3 0.08 1.02 0.15 10 1009.6
20260505234101 8 11 11.3 17.7 0.05 0.99 0.13 10 1009.6
20260505233105 8 15 12.9 19.3 0.08 0.99 0.13 10 1009.7
20260505232106 8 16 11.3 17.7 0.08 0.99 0.13 10 1009.7
20260505231106 8 19 12.9 20.9 0.08 0.99 0.10 10 1009.7
20260505230107 8 13 11.3 17.7 0.08 0.97 0.08 10 1009.8
20260505225106 8 13 11.3 19.3 0.08 0.97 0.08 10 1009.8
20260505224103 8 13 11.3 22.5 0.08 0.94 0.05 10 1009.8
20260505223103 8 11 11.3 17.7 0.10 0.94 0.05 10 1009.9
20260505222106 8 13 12.9 24.1 0.10 0.91 0.05 10 1009.9
20260505221107 8 14 11.3 17.7 0.13 0.91 0.05 10 1009.9
20260505214113 8 15 12.9 20.9 0.13 0.89 0.89 10 1010.1
20260505213110 8 12 12.9 20.9 0.13 0.86 0.86 10 1010.1
20260505212110 8 4 14.5 25.7 0.13 0.84 0.84 10 1010.1
20260505211108 8 6 12.9 22.5 0.13 0.81 0.81 10 1010.2
20260505210106 8 6 11.3 17.7 0.13 0.79 0.79 10 1010.2
20260505205106 8 11 11.3 22.5 0.15 0.79 0.79 10 1010.2